EUTELSAT 115 WEST B

Last updated on Sat Oct 05 2024 00:02:39 GMT+0000 (Coordinated Universal Time)

1 40425U 15010B 24278.54834229 -.00000017 00000+0 00000+0 0 9999 2 40425 0.0173 340.0117 0000066 152.7850 323.4380 1.00270851 35212
UTC large
Height (km)
Speed (km/s)
/
Latitude / Longitude
Inclination (degrees)
Orbital Period (minutes)
Azimuth
Elevation
Range (km)
Doppler Factor

Next 0 passes for location: London (51.5072 / 0.1276)

Sorry there are no passes over London.